Location: Tierra Monte Subdivision
(35.2092°N, 106.4864°W)
Time: 10:40:12
(UTC+00:00)

Hubble Space Telescope - Pass Details

Date: 30 March 2020
Orbit: 536 x 540 km, 28.5° (Epoch: 03 June)

Event Time Altitude Azimuth Distance (km) Brightness Sun altitude
Exits shadow 11:37:44 13° 194° (SSW) 1,612 2.9 -16.2°
Drops below altitude 10° 11:39:11 10° 173° (S) 1,781 3.3 -15.9°
Sets 11:42:31 0° 145° (SE) 2,669 4.6 -15.3°
